Location: Dal�� Lhota
(48.7500°N, 14.0167°E)
Time: 00:17:13
(UTC+00:00)

Tiros 1 - All Passes

Search period start: 29 July 2021 00:00
Search period end: 08 August 2021 00:00
Orbit: 630 x 663 km, 48.4° (Epoch: 28 July)

Date Brightness Start Highest point End Pass type
(mag) Time Alt. Az. Time Alt. Az. Time Alt. Az.
29 Jul - 00:54:35 10° W 00:57:34 17° SW 01:00:32 10° S visible
29 Jul - 16:52:23 10° SSE 16:54:27 13° SE 16:56:32 10° ESE daylight
29 Jul - 18:31:18 10° SW 18:35:47 43° SSE 18:40:16 10° E daylight
29 Jul - 20:13:01 10° W 20:17:47 83° S 20:22:30 10° E visible
29 Jul - 21:55:15 10° W 21:59:59 76° SSW 22:04:39 10° ESE visible
29 Jul - 23:37:38 10° W 23:41:49 32° SSW 23:45:57 10° SSE visible
30 Jul - 17:16:06 10° SSW 17:19:54 24° SE 17:23:44 10° E daylight
30 Jul - 18:56:52 10° WSW 19:01:36 64° SSE 19:06:17 10° E daylight
30 Jul - 20:39:00 10° W 20:43:45 87° S 20:48:28 10° E visible
30 Jul - 22:21:15 10° W 22:25:51 55° SSW 22:30:25 10° SE visible
31 Jul - 00:04:10 10° W 00:07:21 18° SW 00:10:32 10° S visible
31 Jul - 16:02:34 10° SSE 16:04:15 12° SE 16:05:57 10° ESE daylight
31 Jul - 17:41:05 10° SW 17:45:33 41° SSE 17:50:00 10° E daylight
31 Jul - 19:22:44 10° WSW 19:27:31 82° S 19:32:15 10° E visible
31 Jul - 21:04:58 10° W 21:09:43 78° SSW 21:14:25 10° ESE visible
31 Jul - 22:47:20 10° W 22:51:36 34° SSW 22:55:48 10° SSE visible
01 Aug - 16:25:58 10° SSW 16:29:41 23° SE 16:33:24 10° E daylight
01 Aug - 18:06:37 10° WSW 18:11:20 62° SSE 18:16:02 10° E daylight
01 Aug - 19:48:43 10° W 19:53:30 88° S 19:58:13 10° E visible
01 Aug - 21:30:58 10° W 21:35:37 57° SSW 21:40:12 10° ESE visible
01 Aug - 23:13:47 10° W 23:17:09 20° SW 23:20:30 10° S visible
02 Aug - 15:12:53 10° SSE 15:14:03 11° SE 15:15:13 10° ESE daylight
02 Aug - 16:50:52 10° SW 16:55:18 39° SSE 16:59:43 10° E daylight
02 Aug - 18:32:28 10° WSW 18:37:15 81° S 18:42:00 10° E daylight
02 Aug - 20:14:42 10° W 20:19:28 79° S 20:24:10 10° ESE visible
02 Aug - 21:57:02 10° W 22:01:22 36° SSW 22:05:38 10° SE visible
03 Aug - 15:35:51 10° S 15:39:28 21° SE 15:43:04 10° E daylight
03 Aug - 17:16:22 10° WSW 17:21:05 60° SSE 17:25:45 10° E daylight
03 Aug - 18:58:25 10° W 19:03:14 88° S 19:07:58 10° E daylight
03 Aug - 20:40:41 10° W 20:45:22 60° SSW 20:49:59 10° ESE visible
03 Aug - 22:23:25 10° W 22:26:57 21° SW 22:30:26 10° S visible
04 Aug - 16:00:40 10° SW 16:05:04 37° SSE 16:09:27 10° E daylight
04 Aug - 17:42:11 10° WSW 17:46:59 79° SSE 17:51:44 10° E daylight
04 Aug - 19:24:25 10° W 19:29:11 81° S 19:33:55 10° ESE visible
04 Aug - 21:06:44 10° W 21:11:07 38° SSW 21:15:28 10° SE visible
04 Aug - 22:51:24 10° WSW 22:52:21 11° SW 22:53:17 10° SW visible
05 Aug - 14:45:46 10° S 14:49:15 20° SE 14:52:43 10° E daylight
05 Aug - 16:26:07 10° WSW 16:30:49 57° SSE 16:35:31 10° E daylight
05 Aug - 18:08:08 10° W 18:12:57 88° S 18:17:42 10° E daylight
05 Aug - 19:50:24 10° W 19:55:06 62° SSW 19:59:45 10° ESE visible
05 Aug - 21:33:03 10° W 21:36:44 23° SW 21:40:22 10° SSE visible
06 Aug - 15:10:28 10° SW 15:14:50 35° SSE 15:19:09 10° E daylight
06 Aug - 16:51:54 10° WSW 16:56:43 77° SSE 17:01:29 10° E daylight
06 Aug - 18:34:08 10° W 18:38:56 82° S 18:43:40 10° ESE daylight
06 Aug - 20:16:26 10° W 20:20:54 41° SSW 20:25:18 10° SE visible
06 Aug - 22:00:33 10° WSW 22:02:09 12° SW 22:03:45 10° SSW visible
07 Aug - 13:55:42 10° S 13:59:02 19° SE 14:02:21 10° E daylight
07 Aug - 15:35:52 10° SW 15:40:33 55° SSE 15:45:14 10° E daylight
07 Aug - 17:17:51 10° W 17:22:40 87° S 17:27:27 10° E daylight
07 Aug - 19:00:06 10° W 19:04:50 65° SSW 19:09:31 10° ESE visible
07 Aug - 20:42:42 10° W 20:46:31 24° SW 20:50:16 10° SSE visible
